sat.trackr.live / text

‹ back to catalog

JILIN-01 KUANFU 02B 3

NORAD 61191 · 2024-169C

PAYLOAD ACTIVE UNKNOWN

§ Identity

Operator
Country
PRC
Launch date
2024-09-20
Launch site
TAISC
Launch vehicle
Mass (kg)
RCS (m²)

External: N2YO · Heavens-Above · Gunter

§ Orbital elements

Epoch: 2026-05-25T05:24:02.743200Z

Period
95.45 min
Inclination
97.5552°
Eccentricity
0.0014300
Mean motion
15.08708258 rev/d
Perigee alt
530.3 km
Apogee alt
550.0 km
Semi-major
6,918.3 km
B*
1.7935e-4
RAAN
234.9210°
Arg perigee
33.2705°
Mean anomaly
326.9419°
Rev number
9,236

§ Raw data

JILIN-01 KUANFU 02B 31 61191U 24169C   26145.22503175  .00002755  00000+0  17935-3 0  99992 61191  97.5552 234.9210 0014300  33.2705 326.9419 15.08708258 92360

JSON: /api/v1/satellites/61191 · /tle

For live sub-satellite position, see the globe view (requires WebGL).

§ Visibility from observer

Set your observer location to see the next 7 days of passes ≥ 10°. The values pass through the URL so the page stays shareable.

No JS? Fill the form by hand. The geolocation button needs JavaScript.